sat.trackr.live / text

‹ back to catalog

STARLINK-1448

NORAD 45665 · 2020-035J

PAYLOAD ACTIVE UNKNOWN

§ Identity

Operator
Country
US
Launch date
2020-06-04
Launch site
AFETR
Launch vehicle
Mass (kg)
RCS (m²)

Purposes: comms

External: N2YO · Heavens-Above · Gunter

§ Orbital elements

Epoch: 2026-09-20T06:00:02.000160Z

Period
90.19 min
Inclination
53.0309°
Eccentricity
0.0001288
Mean motion
15.96660106 rev/d
Perigee alt
282.8 km
Apogee alt
284.6 km
Semi-major
6,661.8 km
B*
2.4448e-3
RAAN
168.1914°
Arg perigee
110.5500°
Mean anomaly
326.2493°
Rev number
602

§ Raw data

STARLINK-14481 45665U 20035J   26263.25002315  .01055250  53369-3  24448-2 0  99942 45665  53.0309 168.1914 0001288 110.5500 326.2493 15.96660106  6026

JSON: /api/v1/satellites/45665 · /tle

For live sub-satellite position, see the globe view (requires WebGL).

§ Visibility from observer

Set your observer location to see the next 7 days of passes ≥ 10°. The values pass through the URL so the page stays shareable.

No JS? Fill the form by hand. The geolocation button needs JavaScript.